Simultaneous Nadir Overpasses (SNOs) Predictions

Prediction of SNOs between NOAA-15 and METOP-C Satellite Orbit:

Table of predicted SNOs for the next 14.0 days since TLE Epoch: 8/21/2021
Index Date (NOAA-15) Time (NOAA-15) Lat,Lon (NOAA-15) SZA (NOAA-15 ) Date (METOP-C) Time (METOP-C) Lat,Lon (METOP-C) SZA (METOP-C ) Distance(km) Time Diff (sec)
1 08/31/2021 05:06:52 -81.04, -39.53 105.70 08/31/2021 05:05:39 -81.03, -39.49 105.73 1.10 73
2 08/31/2021 05:57:21 81.03, 128.00 74.33 08/31/2021 05:56:20 81.03, 127.94 74.30 1.04 61
3 08/31/2021 06:47:54 -81.03, -64.74 105.67 08/31/2021 06:47:00 -81.04, -64.63 105.68 1.96 54
4 08/31/2021 07:38:23 81.03, 102.79 74.36 08/31/2021 07:37:41 81.04, 102.80 74.35 1.70 42
5 08/31/2021 08:28:56 -81.03, -89.94 105.64 08/31/2021 08:28:22 -81.03, -90.14 105.67 3.41 34
6 08/31/2021 09:19:26 81.04, 77.21 74.36 08/31/2021 09:19:03 81.03, 77.29 74.36 1.57 23
7 08/31/2021 10:09:58 -81.03,-115.15 105.61 08/31/2021 10:09:43 -81.04,-115.28 105.62 2.60 15
8 08/31/2021 11:00:28 81.04, 52.00 74.39 08/31/2021 11:00:24 81.04, 52.15 74.41 2.61 4
9 08/31/2021 11:51:01 -81.04,-140.72 105.61 08/31/2021 11:51:05 -81.03,-140.79 105.62 1.72 4
10 08/31/2021 12:41:30 81.04, 26.79 74.42 08/31/2021 12:41:46 81.04, 26.64 74.41 2.69 16
11 08/31/2021 13:32:03 -81.04,-165.92 105.58 08/31/2021 13:32:26 -81.04,-165.93 105.57 0.21 23
12 08/31/2021 14:22:32 81.03, 1.58 74.45 08/31/2021 14:23:07 81.04, 1.49 74.46 1.88 35
13 08/31/2021 15:13:05 -81.04, 168.87 105.55 08/31/2021 15:13:47 -81.05, 168.92 105.52 1.49 42
14 08/31/2021 16:03:35 81.05, -24.00 74.46 08/31/2021 16:04:29 81.04, -24.02 74.47 1.29 54
15 08/31/2021 16:54:08 -81.05, 143.30 105.54 08/31/2021 16:55:09 -81.04, 143.41 105.51 2.21 61



Historial Predications of SNOs between NOAA-15 and METOP-C
